[[{"header":{"parameterUnit":"m.s-1","parameterCategory":1,"la1":30.2991,"la2":30.254,"lo1":-89.0895,"lo2":-89.0444,"dy":0.0017,"dx":0.0017,"nx":28,"ny":28,"refTime":"2024-04-21T21:00:00:Z","depth":0,"parameterNumber":2,"parameterNumberName":"U-component_of_WINDS"},"data":[0,0,0,0,0,0,0,0,0,0,0,0,0,0,0,0,0,0,0,0,0,0,0,0,0,0,0,0,0,0,0,0,0,0,0,0,0,0,0,0,0,0,0,0,0,0,0,0,0,0,0,0,0,0,0,0,0,0,-1.2509,-1.2508,0,-1.2469,-1.2468,-1.2468,-1.2426,-1.2425,-1.2424,-1.2424,-1.2383,-1.2382,-1.2382,0,0,0,0,0,0,0,0,0,0,0,0,0,-1.2547,-1.2546,-1.2509,-1.2508,-1.2508,-1.2469,-1.2468,-1.2468,-1.2426,-1.2425,-1.2424,-1.2424,-1.2383,-1.2382,-1.2382,0,0,0,0,0,0,0,0,0,0,0,0,0,-1.2521,-1.2546,-1.2509,-1.2482,-1.2479,-1.2469,-1.2468,-1.2468,-1.2426,-1.2425,-1.2424,-1.2423,-1.2383,-1.2382,-1.2382,-1.2395,0,0,-1.2379,-1.2379,0,0,0,0,0,0,0,0,-1.2523,-1.252,-1.2486,-1.2484,-1.2481,-1.2451,-1.2467,-1.2443,-1.2426,-1.2446,-1.2424,-1.2423,-1.2406,-1.2403,-1.2398,-1.2393,-1.2391,-1.2379,-1.2379,-1.2378,-1.2378,0,0,0,0,0,0,0,-1.2524,-1.2521,-1.2493,-1.2486,-1.2482,-1.2472,-1.2467,-1.2462,-1.2432,-1.2444,-1.2441,-1.2437,-1.2404,-1.2399,-1.2397,-1.239,-1.2379,-1.2378,-1.2378,-1.2377,-1.2393,-1.2394,0,0,0,0,0,0,-1.253,-1.2523,-1.2494,-1.2492,-1.25,-1.2472,-1.2466,-1.2462,-1.2432,-1.2426,-1.2438,-1.2435,-1.2401,-1.2398,-1.2395,-1.2408,-1.2378,-1.2377,-1.2377,-1.2392,-1.2393,-1.2394,0,0,0,0,0,0,-1.2531,-1.2528,-1.2496,-1.2506,-1.2501,-1.2472,-1.2467,-1.2461,-1.2456,-1.2427,-1.2421,-1.2438,-1.24,-1.2396,-1.2395,-1.2406,-1.2377,-1.2376,-1.2391,-1.2392,-1.2394,-1.2435,0,0,0,0,0,0,-1.2533,-1.2529,-1.2534,-1.2507,-1.2501,-1.2497,-1.2468,-1.2461,-1.2454,-1.2451,-1.2425,-1.242,-1.2399,-1.2396,-1.2394,-1.2404,-1.2376,-1.239,-1.2392,-1.2393,-1.2432,-1.2437,-1.2442,0,0,0,0,0,-1.2534,-1.2547,-1.2534,-1.2531,-1.2507,-1.2497,-1.2494,-1.247,-1.2456,-1.246,-1.2441,-1.2421,-1.2405,-1.2397,-1.2394,-1.2404,-1.2389,-1.2391,-1.2393,-1.243,-1.2436,-1.2441,0,0,0,0,0,0,-1.2576,-1.2543,-1.2529,-1.2533,-1.2518,-1.249,-1.2495,-1.2477,-1.2466,-1.2463,-1.2433,-1.2427,-1.2429,-1.2416,-1.2407,-1.2415,-1.2394,-1.2396,-1.2423,-1.2429,-1.2434,-1.2437,-1.2375,0,0,0,0,0,-1.2586,-1.2581,-1.2552,-1.2559,-1.2553,-1.2525,-1.252,-1.2503,-1.2486,-1.248,-1.2461,-1.2446,-1.2437,-1.2432,-1.2423,-1.243,-1.2424,-1.2436,-1.244,-1.2444,-1.2446,-1.2448,-1.2453,-1.2401,-1.2401,-1.2401,0,0,-1.2606,-1.2587,-1.2586,-1.2567,-1.2554,-1.2549,-1.252,-1.2517,-1.2514,-1.2479,-1.2477,-1.2463,-1.2443,-1.2446,-1.2447,-1.2436,-1.2459,-1.2447,-1.245,-1.245,-1.2451,-1.2456,-1.246,-1.2402,-1.2402,-1.2402,0,0,-1.264,-1.2626,-1.263,-1.2617,-1.2597,-1.2578,-1.2579,-1.2554,-1.2543,-1.254,-1.2514,-1.2509,-1.2495,-1.2483,-1.2474,-1.2503,-1.2484,-1.2501,-1.2526,-1.2528,-1.2533,-1.2536,-1.2546,-1.255,-1.2503,-1.2503,-1.2503,0,-1.2668,-1.266,-1.2634,-1.2632,-1.2624,-1.2593,-1.2596,-1.2585,-1.2563,-1.2558,-1.2546,-1.2528,-1.2513,-1.2512,-1.2519,-1.2513,-1.2513,-1.2504,-1.2534,-1.2537,-1.254,-1.255,-1.2554,-1.2505,-1.2505,-1.2505,-1.2504,0,-1.2695,-1.269,-1.2696,-1.2675,-1.2668,-1.2669,-1.2642,-1.2638,-1.2621,-1.2604,-1.2601,-1.2582,-1.2568,-1.2566,-1.2549,-1.2563,-1.2556,-1.254,-1.2518,-1.2548,-1.2556,-1.256,-1.2508,-1.2508,-1.2507,-1.2506,0,0,-1.2755,-1.272,-1.2722,-1.2712,-1.2688,-1.2683,-1.2683,-1.2669,-1.2666,-1.2651,-1.265,-1.2638,-1.2623,-1.2613,-1.2595,-1.2597,-1.2621,-1.258,-1.2579,-1.2588,-1.2634,-1.2647,-1.2652,-1.2608,-1.2608,-1.2609,-1.2636,0,-1.2785,-1.2782,-1.2758,-1.2762,-1.2757,-1.2727,-1.2726,-1.2711,-1.2695,-1.2688,-1.267,-1.2662,-1.2642,-1.2636,-1.2637,-1.2618,-1.263,-1.2615,-1.2606,-1.2606,-1.2612,-1.2656,-1.267,-1.2697,-1.2639,-1.2639,-1.264,0,-1.282,-1.2808,-1.2812,-1.2786,-1.2783,-1.2783,-1.2768,-1.2762,-1.2744,-1.2732,-1.2722,-1.27,-1.2697,-1.2677,-1.2673,-1.2663,-1.2658,-1.2648,-1.2648,-1.2646,-1.2625,-1.2656,-1.2704,-1.2709,-1.2645,-1.2644,-1.2644,0,-1.2864,-1.2848,-1.2848,-1.284,-1.2811,-1.2812,-1.2799,-1.278,-1.2773,-1.276,-1.2756,-1.2742,-1.2735,-1.2725,-1.2701,-1.2689,-1.2699,-1.2677,-1.2689,-1.2689,-1.2692,-1.2693,-1.2741,-1.2689,-1.2689,-1.2689,-1.2689,0,-1.29,-1.2903,-1.2867,-1.2867,-1.287,-1.2842,-1.2845,-1.283,-1.2813,-1.2809,-1.2782,-1.2779,-1.2747,-1.274,-1.2721,-1.272,-1.2716,-1.2706,-1.2701,-1.2709,-1.271,-1.2705,-1.2703,-1.269,-1.2689,-1.2689,-1.2689,0,-1.2949,-1.2925,-1.2923,-1.2895,-1.2888,-1.2892,-1.2868,-1.2866,-1.2848,-1.2844,-1.2841,-1.2813,-1.2803,-1.2778,-1.2762,-1.2749,-1.2753,-1.2743,-1.2759,-1.2756,-1.2769,-1.2769,-1.2816,-1.2821,-1.2766,-1.2767,-1.2767,0,-1.2974,-1.2976,-1.2948,-1.2944,-1.2933,-1.2926,-1.2919,-1.2891,-1.2885,-1.2864,-1.2865,-1.2853,-1.2842,-1.2828,-1.2806,-1.2794,-1.2784,-1.2801,-1.2782,-1.2789,-1.2784,-1.2784,-1.2784,-1.2806,-1.2806,-1.2807,-1.2807,0,-1.3021,-1.3009,-1.2999,-1.2986,-1.2978,-1.2966,-1.2953,-1.2951,-1.2919,-1.2913,-1.2903,-1.2895,-1.2879,-1.2867,-1.2851,-1.2838,-1.2818,-1.2814,-1.2816,-1.2824,-1.2833,-1.2828,-1.2771,-1.2813,-1.2812,-1.2812,-1.2812,-1.2811,-1.3058,-1.3058,-1.3039,-1.303,-1.3016,-1.3004,-1.3002,-1.2983,-1.2974,-1.2959,-1.2943,-1.2935,-1.2915,-1.2892,-1.288,-1.2873,-1.2862,-1.2865,-1.2866,-1.2867,-1.287,-1.2834,-1.287,-1.2869,-1.2869,-1.2869,-1.2869,0,-1.3104,-1.3089,-1.3081,-1.3063,-1.3056,-1.3037,-1.3021,-1.3016,-1.3009,-1.2993,-1.2983,-1.2971,-1.296,-1.2936,-1.2923,-1.2922,-1.2912,-1.2919,-1.2919,-1.2916,-1.2881,-1.288,-1.2927,-1.2927,-1.2927,-1.2927,-1.2927,-1.2927,-1.3126,-1.3125,-1.3111,-1.3103,-1.3089,-1.308,-1.3073,-1.3061,-1.3048,-1.3037,-1.3027,-1.3012,-1.2993,-1.2978,-1.2966,-1.296,-1.2956,-1.2966,-1.2957,-1.2924,-1.2919,-1.2913,-1.2913,-1.2966,-1.2966,-1.2993,-1.2993,-1.2993]},{"header":{"parameterUnit":"m.s-1","parameterCategory":1,"la1":30.2991,"la2":30.254,"lo1":-89.0895,"lo2":-89.0444,"dy":0.0017,"dx":0.0017,"nx":28,"ny":28,"refTime":"2024-04-21T21:00:00:Z","depth":0,"parameterNumber":3,"parameterNumberName":"V-component_of_WINDS"},"data":[0,0,0,0,0,0,0,0,0,0,0,0,0,0,0,0,0,0,0,0,0,0,0,0,0,0,0,0,0,0,0,0,0,0,0,0,0,0,0,0,0,0,0,0,0,0,0,0,0,0,0,0,0,0,0,0,0,0,-4.788,-4.788,0,-4.7939,-4.7939,-4.794,-4.7931,-4.793,-4.7929,-4.7929,-4.7984,-4.7986,-4.7989,0,0,0,0,0,0,0,0,0,0,0,0,0,-4.7756,-4.7758,-4.788,-4.788,-4.7881,-4.7938,-4.7939,-4.794,-4.7932,-4.793,-4.7929,-4.7928,-4.7983,-4.7986,-4.7989,0,0,0,0,0,0,0,0,0,0,0,0,0,-4.7812,-4.7759,-4.7879,-4.7884,-4.7885,-4.7938,-4.7939,-4.794,-4.7932,-4.793,-4.7929,-4.7928,-4.7982,-4.7986,-4.7989,-4.8041,0,0,-4.8,-4.8002,0,0,0,0,0,0,0,0,-4.7808,-4.7816,-4.7882,-4.7884,-4.7885,-4.7926,-4.7916,-4.7974,-4.7932,-4.7914,-4.7929,-4.7927,-4.7966,-4.7971,-4.7985,-4.8043,-4.8046,-4.8001,-4.8003,-4.8004,-4.8005,0,0,0,0,0,0,0,-4.7805,-4.7813,-4.7903,-4.7883,-4.7885,-4.7882,-4.7888,-4.7927,-4.7947,-4.7915,-4.7915,-4.7922,-4.7966,-4.7981,-4.7986,-4.8046,-4.8,-4.8004,-4.8006,-4.8007,-4.8151,-4.8153,0,0,0,0,0,0,-4.78,-4.781,-4.7901,-4.7905,-4.7842,-4.7885,-4.7892,-4.7914,-4.7947,-4.795,-4.7923,-4.7922,-4.7976,-4.7982,-4.7988,-4.8051,-4.8004,-4.8008,-4.801,-4.815,-4.8152,-4.8154,0,0,0,0,0,0,-4.7798,-4.7808,-4.7898,-4.7857,-4.7869,-4.7889,-4.7914,-4.7916,-4.7932,-4.7953,-4.7956,-4.7936,-4.7975,-4.7983,-4.8028,-4.8053,-4.8009,-4.8012,-4.8148,-4.815,-4.8153,-4.8178,0,0,0,0,0,0,-4.7794,-4.7807,-4.7828,-4.7858,-4.7871,-4.7939,-4.7915,-4.7918,-4.7938,-4.7937,-4.7965,-4.7968,-4.7974,-4.8023,-4.8032,-4.8057,-4.8015,-4.8146,-4.8149,-4.8152,-4.8175,-4.8181,-4.8186,0,0,0,0,0,-4.779,-4.7831,-4.7829,-4.784,-4.7897,-4.7941,-4.7948,-4.7955,-4.794,-4.7961,-4.7975,-4.7967,-4.8049,-4.8028,-4.8038,-4.8064,-4.8144,-4.8148,-4.8152,-4.8173,-4.818,-4.8186,0,0,0,0,0,0,-4.7801,-4.7835,-4.7833,-4.7886,-4.7911,-4.7939,-4.7965,-4.7963,-4.7991,-4.7988,-4.7994,-4.8001,-4.8047,-4.806,-4.8036,-4.8116,-4.8094,-4.81,-4.8107,-4.8114,-4.8119,-4.8116,-4.8018,0,0,0,0,0,-4.781,-4.7844,-4.7871,-4.7915,-4.7928,-4.7945,-4.7964,-4.7968,-4.7993,-4.8003,-4.802,-4.8043,-4.8074,-4.8095,-4.8124,-4.8177,-4.8183,-4.82,-4.8205,-4.821,-4.8215,-4.8245,-4.8253,-4.8166,-4.8166,-4.8166,0,0,-4.7829,-4.7852,-4.7872,-4.7918,-4.7938,-4.7972,-4.7953,-4.799,-4.8015,-4.8008,-4.8053,-4.8066,-4.8093,-4.8143,-4.8165,-4.8154,-4.8241,-4.8215,-4.8218,-4.8221,-4.825,-4.8258,-4.8266,-4.8169,-4.8168,-4.8168,0,0,-4.788,-4.7901,-4.7941,-4.7961,-4.7992,-4.8003,-4.8013,-4.8042,-4.8051,-4.8097,-4.8093,-4.8122,-4.8175,-4.8195,-4.8212,-4.8272,-4.8267,-4.8281,-4.8311,-4.834,-4.8347,-4.8353,-4.8376,-4.8384,-4.8286,-4.8287,-4.8287,0,-4.7899,-4.7952,-4.7961,-4.7999,-4.802,-4.8017,-4.8057,-4.8076,-4.8114,-4.8128,-4.8116,-4.8183,-4.8201,-4.8256,-4.8271,-4.8284,-4.8295,-4.8279,-4.8346,-4.8352,-4.8358,-4.8379,-4.8388,-4.8288,-4.8288,-4.8288,-4.8288,0,-4.7974,-4.8011,-4.8039,-4.8079,-4.8102,-4.8141,-4.8155,-4.8177,-4.8179,-4.8191,-4.8238,-4.8259,-4.8294,-4.8307,-4.8308,-4.8362,-4.8355,-4.8344,-4.8322,-4.8368,-4.8388,-4.8397,-4.8291,-4.829,-4.8289,-4.8289,0,0,-4.8034,-4.808,-4.809,-4.8109,-4.8143,-4.8171,-4.821,-4.8246,-4.8265,-4.8292,-4.8324,-4.837,-4.8361,-4.838,-4.8383,-4.8409,-4.8457,-4.8395,-4.8395,-4.8407,-4.852,-4.8529,-4.8538,-4.8454,-4.8455,-4.8456,-4.8518,0,-4.809,-4.8161,-4.817,-4.8232,-4.8266,-4.8265,-4.8298,-4.8322,-4.8335,-4.8365,-4.8377,-4.841,-4.8395,-4.8407,-4.8432,-4.8446,-4.848,-4.8441,-4.8484,-4.8485,-4.8478,-4.8549,-4.8558,-4.8615,-4.8526,-4.8527,-4.8528,0,-4.8165,-4.8196,-4.8262,-4.8294,-4.8309,-4.8339,-4.8373,-4.8402,-4.8429,-4.8436,-4.8459,-4.846,-4.8499,-4.8475,-4.8529,-4.8502,-4.852,-4.853,-4.8532,-4.8537,-4.851,-4.8556,-4.8633,-4.8642,-4.8541,-4.854,-4.8539,0,-4.8204,-4.8262,-4.831,-4.8326,-4.8363,-4.8385,-4.8401,-4.8427,-4.8449,-4.8478,-4.8492,-4.8525,-4.8543,-4.8567,-4.8577,-4.8558,-4.8631,-4.8607,-4.8638,-4.8638,-4.8654,-4.8653,-4.8735,-4.8663,-4.8663,-4.8663,-4.8663,0,-4.8266,-4.8307,-4.8329,-4.8358,-4.8403,-4.8414,-4.8458,-4.8473,-4.8497,-4.8528,-4.8527,-4.8556,-4.8567,-4.8597,-4.8604,-4.8649,-4.8656,-4.8663,-4.8664,-4.8664,-4.8663,-4.8676,-4.8673,-4.8665,-4.8664,-4.8664,-4.8664,0,-4.8318,-4.8334,-4.8386,-4.8418,-4.8427,-4.8459,-4.8486,-4.8514,-4.8526,-4.8567,-4.8576,-4.8595,-4.8632,-4.8643,-4.8686,-4.8691,-4.8743,-4.874,-4.8735,-4.8735,-4.8766,-4.8763,-4.886,-4.8874,-4.8792,-4.8792,-4.8793,0,-4.8357,-4.8389,-4.8425,-4.8448,-4.8466,-4.8501,-4.8523,-4.8534,-4.8558,-4.8592,-4.8616,-4.8653,-4.8683,-4.874,-4.8757,-4.879,-4.8789,-4.8821,-4.8794,-4.8793,-4.8791,-4.879,-4.8793,-4.8826,-4.8827,-4.8828,-4.8828,0,-4.8425,-4.8432,-4.8466,-4.8503,-4.8531,-4.856,-4.8588,-4.8606,-4.8621,-4.8647,-4.8685,-4.8709,-4.8754,-4.879,-4.8825,-4.884,-4.8837,-4.8837,-4.8846,-4.8846,-4.8842,-4.8846,-4.875,-4.8834,-4.8834,-4.8833,-4.8833,-4.8833,-4.8473,-4.8502,-4.8533,-4.8571,-4.8594,-4.862,-4.8649,-4.8666,-4.8699,-4.8738,-4.8742,-4.8784,-4.881,-4.8856,-4.8873,-4.8905,-4.8896,-4.8909,-4.8912,-4.8916,-4.8919,-4.8836,-4.8911,-4.8911,-4.8911,-4.8911,-4.8911,0,-4.8543,-4.8563,-4.8598,-4.8639,-4.8668,-4.8665,-4.8696,-4.8721,-4.8758,-4.8784,-4.8815,-4.8859,-4.8895,-4.8915,-4.895,-4.8972,-4.8971,-4.8981,-4.898,-4.8984,-4.8924,-4.8914,-4.8981,-4.8981,-4.8981,-4.8981,-4.8981,-4.8981,-4.8582,-4.8632,-4.8643,-4.8703,-4.8722,-4.8765,-4.8783,-4.8808,-4.8829,-4.888,-4.891,-4.8924,-4.8948,-4.8985,-4.9017,-4.9022,-4.9036,-4.9046,-4.905,-4.8995,-4.8988,-4.8981,-4.8971,-4.9049,-4.9049,-4.9107,-4.9108,-4.9108]}]]